Location: Birkenwerder
(52.6919°N, 13.2774°E)
Time: 00:13:19
(UTC+00:00)

Cosmos 1570 Rocket - Pass Details

Date: 03 October 2020
Orbit: 763 x 788 km, 74.1° (Epoch: 24 October)

Event Time Altitude Azimuth Distance (km) Brightness Sun altitude
Exits shadow 02:50:33 43° 282° (WNW) 1,094 4.4 -21.8°
Maximum altitude 02:51:14 46° 304° (NW) 1,058 4.4 -21.7°
Drops below altitude 10° 02:56:25 10° 18° (NNE) 2,364 7.0 -21.0°
Sets 02:58:55 0° 24° (NNE) 3,297 8.0 -20.6°
